Grants-Milan, NM

9:26 AM MDT on April 26, 2017 (GMT -0600)
Grants-Milan Municipal

Weather History for KGNT - February, 2013

Change the Weather History Date:

Sunday, February 3, 2013

  Actual Average Record
Temperature  
Mean Temperature 36 °F -  
Max Temperature 54 °F 48 °F 66 °F (2000)
Min Temperature 18 °F 16 °F -22 °F (2011)
Degree Days  
Heating Degree Days 29    
Moisture  
Dew Point 21 °F    
Average Humidity 59    
Maximum Humidity 81    
Minimum Humidity 27    
Precipitation  
Precipitation 0.00 in - - ()
Sea Level Pressure  
Sea Level Pressure 30.19 in    
Wind  
Wind Speed 5 mph (NW)    
Max Wind Speed 14 mph    
Max Gust Speed 18 mph    
Visibility 10 miles    
Events      
Averages and records for this station are not official NWS values.
T = Trace of Precipitation, MM = Missing Value Source: NWS Daily Summary

Daily Weather History Graph

Daily Weather History Graph

Search for Another Location

Airport or City:

Trip Planner

Search our weather history database for the weather conditions in past years. The results will help you decide how hot, cold, wet, or windy it might be!

Date:

Astronomy

Feb. 03, 2013 Rise Set
Actual Time 7:08 AM MST 5:42 PM MST
Civil Twilight 6:42 AM MST 6:09 PM MST
Nautical Twilight 6:12 AM MST 6:39 PM MST
Astronomical Twilight 5:42 AM MST 7:09 PM MST
Moon 12:39 AM MST (2/3) 11:23 AM MST (2/3)
Length of Visible Light 11h 26m
Length of Day
10h 33m
Waning Gibbous, 48% of the Moon is Illuminated
Feb 3
Waning Gibbous
Feb 10
New
Feb 17
First Quarter
Feb 25
Full
Mar 4
Last Quarter

Hourly Weather History & Observations

Time (MST) Temp. Windchill Dew Point Humidity Pressure Visibility Wind Dir Wind Speed Gust Speed Precip Events Conditions
12:15 AM 23.2 °F 16.0 °F 15.4 °F 72% 30.37 in 10.0 mi NW 5.8 mph - N/A   Clear
12:35 AM 21.9 °F 13.4 °F 14.4 °F 73% 30.37 in 10.0 mi NW 6.9 mph - N/A   Clear
12:55 AM 21.7 °F 13.2 °F 13.6 °F 71% 30.36 in 10.0 mi NNW 6.9 mph - N/A   Clear
1:15 AM 23.2 °F 15.0 °F 14.7 °F 70% 30.35 in 10.0 mi NW 6.9 mph - N/A   Clear
1:35 AM 21.9 °F 12.5 °F 12.9 °F 68% 30.34 in 10.0 mi NNW 8.1 mph - N/A   Clear
1:55 AM 20.8 °F 12.1 °F 12.4 °F 70% 30.33 in 10.0 mi NW 6.9 mph - N/A   Clear
2:15 AM 22.5 °F 15.1 °F 13.6 °F 69% 30.33 in 10.0 mi NNW 5.8 mph - N/A   Clear
2:35 AM 22.1 °F 15.9 °F 12.7 °F 67% 30.33 in 10.0 mi NW 4.6 mph - N/A   Clear
2:55 AM 23.9 °F 16.8 °F 15.3 °F 70% 30.32 in 10.0 mi NNW 5.8 mph - N/A   Clear
3:15 AM 24.8 °F 17.9 °F 16.3 °F 70% 30.32 in 10.0 mi NW 5.8 mph - N/A   Clear
3:35 AM 24.8 °F 17.9 °F 16.7 °F 71% 30.30 in 10.0 mi NW 5.8 mph - N/A   Clear
3:55 AM 25.2 °F 18.3 °F 17.1 °F 71% 30.30 in 10.0 mi NW 5.8 mph - N/A   Clear
4:15 AM 23.9 °F 18.0 °F 16.3 °F 73% 30.29 in 10.0 mi NW 4.6 mph - N/A   Clear
4:35 AM 23.5 °F 16.4 °F 16.2 °F 73% 30.29 in 10.0 mi NW 5.8 mph - N/A   Clear
4:55 AM 22.8 °F 15.5 °F 15.4 °F 73% 30.29 in 10.0 mi NW 5.8 mph - N/A   Clear
5:15 AM 23.0 °F 14.7 °F 16.5 °F 76% 30.28 in 10.0 mi WNW 6.9 mph - N/A   Clear
5:35 AM 21.7 °F 15.5 °F 16.0 °F 78% 30.27 in 10.0 mi NW 4.6 mph - N/A   Clear
5:55 AM 20.8 °F 14.4 °F 15.3 °F 79% 30.27 in 10.0 mi NNW 4.6 mph - N/A   Clear
6:15 AM 20.5 °F 14.0 °F 15.1 °F 80% 30.26 in 10.0 mi NW 4.6 mph - N/A   Clear
6:35 AM 18.3 °F - 13.3 °F 81% 30.26 in 10.0 mi Calm Calm - N/A   Mostly Cloudy
6:55 AM 18.1 °F - 13.3 °F 81% 30.26 in 10.0 mi Calm Calm - N/A   Overcast
7:15 AM 20.7 °F 14.2 °F 14.4 °F 77% 30.26 in 10.0 mi WNW 4.6 mph - N/A   Overcast
7:35 AM 23.0 °F - 15.4 °F 73% 30.26 in 10.0 mi Calm Calm - N/A   Mostly Cloudy
7:55 AM 23.9 °F - 15.1 °F 69% 30.25 in 10.0 mi Calm Calm - N/A   Overcast
8:15 AM 25.2 °F - 15.6 °F 67% 30.25 in 10.0 mi Calm Calm - N/A   Overcast
8:35 AM 26.6 °F 22.6 °F 15.8 °F 64% 30.25 in 10.0 mi NNW 3.5 mph - N/A   Overcast
8:55 AM 27.5 °F 23.6 °F 16.5 °F 63% 30.24 in 10.0 mi NW 3.5 mph - N/A   Overcast
9:15 AM 29.7 °F 26.1 °F 17.4 °F 60% 30.24 in 10.0 mi NNW 3.5 mph - N/A   Overcast
9:35 AM 32.0 °F 28.7 °F 18.1 °F 57% 30.24 in 10.0 mi NNW 3.5 mph - N/A   Overcast
9:55 AM 32.9 °F 28.5 °F 19.8 °F 59% 30.23 in 10.0 mi NW 4.6 mph - N/A   Overcast
10:15 AM 34.5 °F - 19.9 °F 55% 30.23 in 10.0 mi Calm Calm - N/A   Overcast
10:35 AM 36.5 °F 32.7 °F 20.1 °F 52% 30.22 in 10.0 mi North 4.6 mph - N/A   Overcast
10:55 AM 38.3 °F 35.9 °F 20.8 °F 50% 30.22 in 10.0 mi North 3.5 mph - N/A   Overcast
11:15 AM 39.9 °F 36.7 °F 20.3 °F 45% 30.21 in 10.0 mi North 4.6 mph - N/A   Overcast
11:35 AM 41.2 °F 37.3 °F 20.5 °F 44% 30.20 in 10.0 mi North 5.8 mph - N/A   Overcast
11:55 AM 43.0 °F - 20.5 °F 41% 30.20 in 10.0 mi Calm Calm - N/A   Overcast
12:15 PM 44.6 °F 42.2 °F 20.5 °F 38% 30.18 in 10.0 mi NNW 4.6 mph - N/A   Overcast
12:35 PM 45.7 °F 43.4 °F 19.9 °F 36% 30.16 in 10.0 mi NW 4.6 mph - N/A   Overcast
12:55 PM 46.9 °F - 19.8 °F 34% 30.15 in 10.0 mi Calm Calm - N/A   Overcast
1:15 PM 48.2 °F - 19.4 °F 32% 30.14 in 10.0 mi NW 3.5 mph - N/A   Overcast
1:55 PM 49.8 °F - 19.4 °F 30% 30.11 in 10.0 mi Calm Calm - N/A   Overcast
2:15 PM 51.8 °F - 19.2 °F 28% 30.10 in 10.0 mi Calm Calm - N/A   Overcast
2:35 PM 54.5 °F - 21.0 °F 27% 30.09 in 10.0 mi NW 13.8 mph 18.4 mph N/A   Overcast
2:55 PM 54.1 °F - 21.0 °F 27% 30.09 in 10.0 mi WNW 11.5 mph 16.1 mph N/A   Overcast
3:15 PM 53.1 °F - 20.3 °F 28% 30.08 in 10.0 mi West 9.2 mph - N/A   Overcast
3:35 PM 52.9 °F - 22.5 °F 31% 30.07 in 10.0 mi West 6.9 mph - N/A   Overcast
3:55 PM 53.2 °F - 24.6 °F 33% 30.07 in 10.0 mi West 11.5 mph - N/A   Overcast
4:15 PM 52.9 °F - 24.8 °F 34% 30.07 in 10.0 mi West 10.4 mph - N/A   Overcast
4:55 PM 46.9 °F - 25.7 °F 44% 30.08 in 10.0 mi NNW 10.4 mph - N/A   Overcast
5:15 PM 45.9 °F 40.8 °F 27.9 °F 49% 30.08 in 10.0 mi North 10.4 mph - N/A   Overcast
5:35 PM 44.6 °F 38.4 °F 28.6 °F 53% 30.09 in 10.0 mi NNW 12.7 mph - N/A   Overcast
5:55 PM 43.3 °F 37.7 °F 29.3 °F 58% 30.09 in 10.0 mi North 10.4 mph - N/A   Overcast
6:15 PM 42.4 °F 37.5 °F 29.3 °F 60% 30.10 in 10.0 mi North 8.1 mph - N/A   Overcast
6:35 PM 41.0 °F 35.8 °F 28.9 °F 62% 30.10 in 10.0 mi NNW 8.1 mph - N/A   Overcast
6:55 PM 40.5 °F 35.8 °F 28.4 °F 62% 30.10 in 10.0 mi NW 6.9 mph - N/A   Overcast
7:15 PM 40.3 °F 36.3 °F 28.4 °F 63% 30.10 in 10.0 mi NW 5.8 mph - N/A   Overcast
7:35 PM 40.5 °F 35.1 °F 27.5 °F 60% 30.10 in 10.0 mi NW 8.1 mph - N/A   Overcast
7:55 PM 40.1 °F 35.3 °F 27.5 °F 61% 30.11 in 10.0 mi WNW 6.9 mph - N/A   Overcast
8:15 PM 40.1 °F 36.1 °F 27.3 °F 60% 30.11 in 10.0 mi NW 5.8 mph - N/A   Overcast
8:35 PM 40.1 °F 36.9 °F 27.3 °F 60% 30.12 in 10.0 mi NW 4.6 mph - N/A   Overcast
8:55 PM 39.2 °F 37.0 °F 27.1 °F 62% 30.12 in 10.0 mi NNW 3.5 mph - N/A   Overcast
9:15 PM 38.7 °F 36.3 °F 27.1 °F 63% 30.11 in 10.0 mi NNW 3.5 mph - N/A   Overcast
9:35 PM 37.8 °F 34.2 °F 26.8 °F 65% 30.11 in 10.0 mi NNW 4.6 mph - N/A   Overcast
9:55 PM 38.1 °F - 27.0 °F 64% 30.10 in 10.0 mi Calm Calm - N/A   Overcast
10:15 PM 37.2 °F - 27.1 °F 67% 30.10 in 10.0 mi Calm Calm - N/A   Overcast
10:35 PM 36.9 °F - 27.0 °F 67% 30.10 in 10.0 mi Calm Calm - N/A   Overcast
10:55 PM 36.9 °F - 26.8 °F 67% 30.10 in 10.0 mi Calm Calm - N/A   Overcast
11:15 PM 36.7 °F 34.1 °F 27.0 °F 68% 30.10 in 10.0 mi NW 3.5 mph - N/A   Overcast
11:35 PM 37.6 °F 33.1 °F 27.5 °F 67% 30.09 in 10.0 mi NW 5.8 mph - N/A   Overcast
11:55 PM 35.6 °F 31.7 °F 26.4 °F 69% 30.09 in 10.0 mi NW 4.6 mph - N/A   Overcast